Home   Weather   Izmir   Past weeks

Flag for Turkey Past Weather in Izmir, Turkey — Yesterday and Last 2 Weeks

Now
75 °F

Clear.


Feels Like: 78 °F
Forecast: 74 / 93 °F
Wind: 21 mph from North

Location: Izmir / Adnan Menderes

Current Time: Aug 31, 2016 at 7:19:41 AM

Latest Report: Aug 31, 2016 at 6:50 AM


Visibility: 10 mi

Pressure: 29.92 "Hg

Humidity: 54%

Dew Point: 57 °F

Location of IzmirLocation

Past Weather in Izmir — Graph

°F

Izmir Temperature Yesterday

Maximum temperature yesterday: 88 °F (at 1:20 PM)
Minimum temperature yesterday: 66 °F (at 6:20 AM)
Average temperature yesterday: 79 °F

High & Low Weather Summary for the Past Weeks

 TemperatureHumidityPressure
High97 °F (Aug 18, 4:50 PM)83% (Aug 19, 11:50 PM)29.92 "Hg (Aug 19, 11:50 PM)
Low63 °F (Aug 18, 5:50 AM)20% (Aug 17, 4:50 PM)29.71 "Hg (Aug 18, 3:20 PM)
Average83 °F49%29.81 "Hg
* Reported Aug 16 5:20 AM — Aug 31 5:50 AM, Izmir, Weather by CustomWeather, © 2016

Note: Actual official high and low records may vary slightly from our data, if they occured in-between our weather recording intervals... More about our weather records

Advertising

Izmir Weather History for the Previous 24 Hours

Scroll right to see more
 ConditionsComfort  
Time TempWeatherWind HumidityBarometerVisibility
5:50 AM
Wed, Aug 31
77 °FClear.21 mph47%29.89 "Hg10 mi
5:20 AM77 °FClear.22 mph47%29.89 "Hg10 mi
4:50 AM77 °FClear.17 mph47%29.89 "Hg10 mi
4:20 AM77 °FClear.17 mph47%29.89 "Hg10 mi
3:50 AM77 °FClear.18 mph47%29.89 "Hg10 mi
3:20 AM77 °FClear.18 mph47%29.89 "Hg10 mi
2:50 AM77 °FClear.17 mph47%29.89 "Hg10 mi
2:20 AM79 °FClear.17 mph45%29.89 "Hg10 mi
1:50 AM79 °FClear.16 mph42%29.89 "Hg10 mi
1:20 AM79 °FClear.18 mph45%29.89 "Hg10 mi
12:50 AM79 °FClear.16 mph45%29.89 "Hg10 mi
12:20 AM79 °FClear.15 mph48%29.92 "Hg10 mi
11:50 PM
Tue, Aug 30
79 °FClear.13 mph48%29.89 "Hg10 mi
11:20 PM79 °FClear.14 mph51%29.89 "Hg10 mi
10:50 PM79 °FClear.14 mph51%29.89 "Hg10 mi
10:20 PM79 °FClear.14 mph51%29.89 "Hg10 mi
9:50 PM81 °FClear.14 mph48%29.89 "Hg10 mi
9:20 PM81 °FClear.15 mph48%29.86 "Hg10 mi
8:50 PM82 °FClear.18 mph45%29.86 "Hg10 mi
8:20 PM82 °FSunny.20 mph45%29.86 "Hg10 mi
7:50 PM82 °FSunny.20 mph45%29.86 "Hg10 mi
7:20 PM84 °FSunny.20 mph43%29.86 "Hg10 mi
6:50 PM84 °FSunny.21 mph43%29.83 "Hg10 mi
6:20 PM86 °FSunny.21 mph40%29.83 "Hg10 mi
5:50 PM86 °FPassing clouds.23 mph40%29.83 "HgN/A
5:20 PM86 °FPassing clouds.23 mph40%29.83 "HgN/A
4:50 PM86 °FPassing clouds.24 mph40%29.83 "HgN/A
4:20 PM88 °FPassing clouds.22 mph38%29.86 "HgN/A
3:50 PM88 °FPassing clouds.21 mph40%29.86 "HgN/A
3:20 PM88 °FPassing clouds.21 mph40%29.86 "HgN/A
2:50 PM88 °FPassing clouds.22 mph38%29.86 "HgN/A
2:20 PM88 °FPassing clouds.21 mph38%29.86 "HgN/A
1:50 PM88 °FPassing clouds.22 mph40%29.89 "HgN/A
1:20 PM88 °FPassing clouds.20 mph40%29.89 "HgN/A
12:50 PM86 °FPassing clouds.20 mph38%29.89 "HgN/A
12:20 PM86 °FPassing clouds.17 mph40%29.89 "HgN/A
11:50 AM86 °FPassing clouds.15 mph40%29.89 "HgN/A
11:20 AM84 °FPassing clouds.13 mph43%29.89 "HgN/A
10:50 AM82 °FPassing clouds.12 mph45%29.89 "HgN/A
10:20 AM82 °FPassing clouds.10 mph45%29.89 "HgN/A
9:50 AM81 °FPassing clouds.10 mph48%29.89 "HgN/A
9:20 AM79 °FSunny.12 mph51%29.89 "Hg10 mi
8:50 AM79 °FSunny.13 mph51%29.89 "Hg10 mi
8:20 AM75 °FSunny.12 mph65%29.89 "Hg10 mi
7:50 AM73 °FSunny.12 mph69%29.86 "Hg10 mi
7:20 AM72 °FPassing clouds.6 mph73%29.86 "HgN/A
Weather by CustomWeather, © 2016

See weather overviewHow to use our weather pages